Observations for Trim Market St
| Time | AQI | Temp °C | Hum % | Pres Pa | CO μg/m³ | H₂S μg/m³ | NO μg/m³ | NO₂ μg/m³ | O₃ μg/m³ | SO₂ μg/m³ | PM1 μg/m³ | PM2.5 μg/m³ | PM10 μg/m³ |
|---|---|---|---|---|---|---|---|---|---|---|---|---|---|
| Wednesday 26 August 2026 | |||||||||||||
| 15:59 | 2 | 33.6 | 38 | 66,109 | 0 | 0 | 1.93 | 15.29 | 74.36 | 0 | 3.56 | 6.66 | 7.53 |
| 15:58 | 2 | 33.5 | 39 | 66,109 | 0 | 0 | 1.93 | 8.4 | 73.23 | 0 | 2.85 | 6.65 | 7.53 |
| 15:57 | 2 | 33.5 | 39 | 66,080 | 0 | 0 | 1.98 | 18.9 | 69 | 0 | 2.85 | 5.57 | 5.91 |
| 15:56 | 2 | 33.3 | 40 | 66,068 | 0.02 | 0 | 1.99 | 15.63 | 71.51 | 0 | 3.56 | 6.59 | 9.14 |
| 15:55 | 2 | 33.2 | 40 | 66,054 | 0 | 0 | 1.95 | 23.28 | 66.66 | 0 | 2.14 | 5 | 5.11 |
| 15:54 | 2 | 33.1 | 40 | 66,054 | 0.02 | 0 | 1.97 | 8.07 | 71.39 | 0 | 2.85 | 6.03 | 7.53 |
| 15:53 | 2 | 32.9 | 41 | 66,035 | 0.03 | 0 | 1.92 | 23.13 | 64.68 | 0 | 2.14 | 5.48 | 5.93 |
| 15:52 | 2 | 32.8 | 41 | 66,005 | 0 | 0 | 2.02 | 14.29 | 72.13 | 0 | 2.14 | 4.41 | 4.85 |
| 15:51 | 2 | 32.7 | 42 | 65,972 | 0 | 0 | 2.07 | 16.21 | 66.85 | 0 | 2.85 | 5.97 | 6.73 |
| 15:50 | 2 | 32.6 | 42 | 65,955 | 0 | 0 | 2.14 | 24.46 | 78.56 | 0 | 2.85 | 5.93 | 6.74 |
| 15:49 | 2 | 32.4 | 43 | 65,908 | 0 | 0 | 2.15 | 11.49 | 58.15 | 0 | 2.14 | 4.84 | 5.17 |
| 15:48 | 2 | 32.2 | 44 | 65,841 | 0 | 0 | 2.19 | 20.37 | 64.38 | 0 | 2.85 | 5.35 | 5.96 |
| 15:46 | 2 | 31.7 | 44 | 65,776 | 0 | 0 | 1.97 | 20.68 | 65.18 | 0 | 2.85 | 5.34 | 6.74 |
| 15:45 | 2 | 31.6 | 44 | 65,789 | 0 | 0 | 2 | 15.23 | 68.8 | 0 | 2.85 | 6.38 | 8.31 |
| 15:43 | 2 | 31.3 | 44 | 65,726 | 0 | 0 | 2.02 | 16.65 | 66.8 | 0 | 2.85 | 5.33 | 5.96 |
| 15:42 | 2 | 31.2 | 44 | 65,723 | 0 | 0 | 1.95 | 17.13 | 67.44 | 0 | 1.43 | 4.8 | 5.18 |
| 15:41 | 2 | 31 | 44 | 65,663 | 0 | 0 | 2.02 | 16.06 | 68.25 | 0 | 4.28 | 6.88 | 8.31 |
| 15:40 | 2 | 30.9 | 44 | 65,643 | 0 | 0 | 2.01 | 13.59 | 68.97 | 0 | 2.85 | 5.3 | 5.97 |
| 15:39 | 2 | 30.8 | 45 | 65,590 | 0 | 0 | 1.99 | 11.33 | 69.51 | 0 | 2.14 | 5.29 | 5.97 |
| 15:38 | 2 | 30.7 | 45 | 65,527 | 0 | 0 | 1.96 | 15.54 | 64.64 | 0 | 2.85 | 6.32 | 10.63 |